Time,TemperatureF,DewpointF,PressureIn,WindDirection,WindDirectionDegrees,WindSpeedMPH,WindSpeedGustMPH,Humidity,HourlyPrecipIn,Conditions,Clouds,dailyrainin,SoftwareType,DateUTC
2013-12-17 00:01:00,20.8,17.9,29.96,South,180,3.1,5.4,88,0.00,,,0.00,pywws,2013-12-17 05:01:00,
2013-12-17 00:03:00,20.8,17.9,29.96,SE,135,4.5,7.6,88,0.00,,,0.00,pywws,2013-12-17 05:03:00,
2013-12-17 00:08:00,20.8,17.9,29.96,SE,135,4.5,6.0,88,0.00,,,0.00,pywws,2013-12-17 05:08:00,
2013-12-17 00:11:00,20.8,17.9,29.96,SE,135,3.1,6.0,88,0.00,,,0.00,pywws,2013-12-17 05:11:00,
2013-12-17 00:13:00,21.0,18.0,29.95,NW,315,3.8,5.4,88,0.00,,,0.00,pywws,2013-12-17 05:13:00,
2013-12-17 00:19:00,21.0,18.0,29.95,South,180,6.9,9.2,88,0.00,,,0.00,pywws,2013-12-17 05:19:00,
2013-12-17 00:25:00,21.0,18.3,29.95,SE,135,4.5,7.6,89,0.00,,,0.00,pywws,2013-12-17 05:25:00,
2013-12-17 00:30:00,21.2,18.2,29.95,SE,135,3.8,6.9,88,0.00,,,0.00,pywws,2013-12-17 05:30:00,
2013-12-17 00:36:00,21.2,18.5,29.94,SE,135,5.4,6.9,89,0.00,,,0.00,pywws,2013-12-17 05:36:00,
2013-12-17 00:41:00,21.4,18.7,29.94,SE,135,6.0,8.3,89,0.00,,,0.00,pywws,2013-12-17 05:41:00,
2013-12-17 00:47:00,21.4,18.7,29.94,SE,135,6.0,7.6,89,0.00,,,0.00,pywws,2013-12-17 05:47:00,
2013-12-17 00:53:00,21.6,18.8,29.93,South,180,4.5,6.9,89,0.00,,,0.00,pywws,2013-12-17 05:53:00,
2013-12-17 00:58:00,21.6,18.8,29.93,SE,135,6.0,9.8,89,0.00,,,0.00,pywws,2013-12-17 05:58:00,
2013-12-17 01:04:00,21.7,19.0,29.93,SE,135,5.4,7.6,89,0.00,,,0.00,pywws,2013-12-17 06:04:00,
2013-12-17 01:09:00,21.9,19.2,29.92,East,90,7.6,9.8,89,0.00,,,0.00,pywws,2013-12-17 06:09:00,
2013-12-17 01:15:00,22.1,19.4,29.92,South,180,6.0,8.3,89,0.00,,,0.00,pywws,2013-12-17 06:15:00,
2013-12-17 01:20:00,22.3,19.5,29.92,SE,135,4.5,6.0,89,0.00,,,0.00,pywws,2013-12-17 06:20:00,
2013-12-17 01:25:00,22.3,19.3,29.91,South,180,4.5,6.9,88,0.00,,,0.00,pywws,2013-12-17 06:25:00,
2013-12-17 01:30:00,22.6,19.6,29.91,South,180,8.3,14.5,88,0.00,,,0.00,pywws,2013-12-17 06:30:00,
2013-12-17 01:36:00,22.8,19.8,29.91,South,180,3.8,5.4,88,0.00,,,0.00,pywws,2013-12-17 06:36:00,
2013-12-17 01:41:00,23.0,19.7,29.91,South,180,4.5,6.9,87,0.00,,,0.00,pywws,2013-12-17 06:41:00,
2013-12-17 01:47:00,23.2,19.9,29.91,SW,225,5.4,7.6,87,0.00,,,0.00,pywws,2013-12-17 06:47:00,
2013-12-17 01:53:00,23.2,19.9,29.91,SE,135,6.0,9.2,87,0.00,,,0.00,pywws,2013-12-17 06:53:00,
2013-12-17 01:58:00,23.2,19.9,29.91,SE,135,5.4,8.3,87,0.00,,,0.00,pywws,2013-12-17 06:58:00,
2013-12-17 02:04:00,23.4,20.1,29.91,SE,135,8.3,9.8,87,0.00,,,0.00,pywws,2013-12-17 07:04:00,
2013-12-17 02:09:00,23.5,20.5,29.90,SE,135,3.8,6.9,88,0.00,,,0.00,pywws,2013-12-17 07:09:00,
2013-12-17 02:15:00,23.7,20.7,29.90,South,180,4.5,7.6,88,0.00,,,0.00,pywws,2013-12-17 07:15:00,
2013-12-17 02:20:00,23.9,20.9,29.91,SW,225,2.2,3.8,88,0.00,,,0.00,pywws,2013-12-17 07:20:00,
2013-12-17 02:25:00,23.9,20.9,29.91,NW,315,1.6,2.2,88,0.00,,,0.00,pywws,2013-12-17 07:25:00,
2013-12-17 02:30:00,23.9,21.1,29.91,West,270,0.7,2.2,89,0.00,,,0.00,pywws,2013-12-17 07:30:00,
2013-12-17 02:36:00,24.1,21.3,29.91,South,180,3.1,5.4,89,0.00,,,0.00,pywws,2013-12-17 07:36:00,
2013-12-17 02:41:00,24.1,21.3,29.91,South,180,3.1,4.5,89,0.00,,,0.00,pywws,2013-12-17 07:41:00,
2013-12-17 02:47:00,24.3,21.5,29.91,SE,135,3.1,4.5,89,0.00,,,0.00,pywws,2013-12-17 07:47:00,
2013-12-17 02:53:00,24.3,21.5,29.91,South,180,5.4,7.6,89,0.00,,,0.00,pywws,2013-12-17 07:53:00,
2013-12-17 02:58:00,24.4,21.9,29.91,West,270,1.6,3.1,90,0.00,,,0.00,pywws,2013-12-17 07:58:00,
2013-12-17 03:04:00,24.4,21.9,29.91,South,180,1.6,3.1,90,0.00,,,0.00,pywws,2013-12-17 08:04:00,
2013-12-17 03:09:00,25.0,22.5,29.91,SE,135,1.6,3.1,90,0.00,,,0.00,pywws,2013-12-17 08:09:00,
2013-12-17 03:15:00,25.0,22.5,29.91,SE,135,1.6,2.2,90,0.00,,,0.00,pywws,2013-12-17 08:15:00,
2013-12-17 03:20:00,25.0,22.5,29.91,West,270,0.7,1.6,90,0.00,,,0.00,pywws,2013-12-17 08:20:00,
2013-12-17 03:25:00,25.0,22.5,29.91,South,180,3.1,6.0,90,0.00,,,0.00,pywws,2013-12-17 08:25:00,
2013-12-17 03:30:00,25.0,22.5,29.91,South,180,4.5,6.0,90,0.00,,,0.00,pywws,2013-12-17 08:30:00,
2013-12-17 03:36:00,25.2,22.9,29.91,SE,135,3.8,6.9,91,0.00,,,0.00,pywws,2013-12-17 08:36:00,
2013-12-17 03:41:00,25.2,22.6,29.91,South,180,1.6,2.2,90,0.00,,,0.00,pywws,2013-12-17 08:41:00,
2013-12-17 03:47:00,25.3,22.8,29.91,South,180,1.6,2.2,90,0.00,,,0.00,pywws,2013-12-17 08:47:00,
2013-12-17 03:53:00,25.3,22.8,29.90,West,270,0.0,1.6,90,0.00,,,0.00,pywws,2013-12-17 08:53:00,
2013-12-17 03:58:00,25.5,23.0,29.91,West,270,0.0,0.7,90,0.00,,,0.00,pywws,2013-12-17 08:58:00,
2013-12-17 04:04:00,25.5,23.0,29.91,South,180,1.6,3.1,90,0.00,,,0.00,pywws,2013-12-17 09:04:00,
2013-12-17 04:10:00,26.1,23.8,29.90,West,270,1.6,4.5,91,0.00,,,0.00,pywws,2013-12-17 09:10:00,
2013-12-17 04:15:00,26.2,24.0,29.90,West,270,0.7,4.5,91,0.00,,,0.00,pywws,2013-12-17 09:15:00,
2013-12-17 04:20:00,26.4,24.2,29.90,West,270,0.7,1.6,91,0.00,,,0.00,pywws,2013-12-17 09:20:00,
2013-12-17 04:25:00,26.6,24.1,29.89,SW,225,1.6,2.2,90,0.00,,,0.00,pywws,2013-12-17 09:25:00,
2013-12-17 04:30:00,26.6,24.1,29.89,West,270,0.7,2.2,90,0.00,,,0.00,pywws,2013-12-17 09:30:00,
2013-12-17 04:36:00,26.6,24.1,29.88,SE,135,0.0,0.7,90,0.00,,,0.00,pywws,2013-12-17 09:36:00,
2013-12-17 04:41:00,26.6,24.1,29.89,North,0,1.6,3.1,90,0.00,,,0.00,pywws,2013-12-17 09:41:00,
2013-12-17 04:47:00,26.6,24.1,29.89,West,270,0.0,0.7,90,0.00,,,0.00,pywws,2013-12-17 09:47:00,
2013-12-17 04:53:00,26.6,24.3,29.89,North,0,1.6,2.2,91,0.00,,,0.00,pywws,2013-12-17 09:53:00,
2013-12-17 04:58:00,26.4,24.4,29.89,SW,225,2.2,3.8,92,0.00,,,0.00,pywws,2013-12-17 09:58:00,
2013-12-17 05:04:00,26.4,24.4,29.89,SW,225,1.6,3.8,92,0.00,,,0.00,pywws,2013-12-17 10:04:00,
2013-12-17 05:09:00,26.2,24.2,29.89,South,180,3.8,6.9,92,0.00,,,0.00,pywws,2013-12-17 10:09:00,
2013-12-17 05:15:00,26.2,24.2,29.90,NW,315,1.6,3.8,92,0.00,,,0.00,pywws,2013-12-17 10:15:00,
2013-12-17 05:20:00,26.2,24.2,29.89,SE,135,1.6,3.8,92,0.00,,,0.00,pywws,2013-12-17 10:20:00,
2013-12-17 05:25:00,26.2,24.2,29.90,South,180,0.7,1.6,92,0.00,,,0.00,pywws,2013-12-17 10:25:00,
2013-12-17 05:30:00,25.9,23.9,29.91,South,180,3.1,5.4,92,0.00,,,0.00,pywws,2013-12-17 10:30:00,
2013-12-17 05:36:00,25.7,23.7,29.90,West,270,0.0,1.6,92,0.00,,,0.00,pywws,2013-12-17 10:36:00,
2013-12-17 05:41:00,25.3,23.1,29.91,West,270,3.1,5.4,91,0.00,,,0.00,pywws,2013-12-17 10:41:00,
2013-12-17 05:47:00,25.3,22.8,29.91,West,270,1.6,3.1,90,0.00,,,0.00,pywws,2013-12-17 10:47:00,
2013-12-17 05:53:00,25.0,22.2,29.91,NW,315,6.0,9.8,89,0.00,,,0.00,pywws,2013-12-17 10:53:00,
2013-12-17 05:58:00,24.8,21.8,29.91,South,180,3.8,6.9,88,0.00,,,0.00,pywws,2013-12-17 10:58:00,
2013-12-17 06:04:00,24.6,21.6,29.91,North,0,3.1,4.5,88,0.00,,,0.00,pywws,2013-12-17 11:04:00,
2013-12-17 06:09:00,24.4,21.4,29.91,South,180,3.1,5.4,88,0.00,,,0.00,pywws,2013-12-17 11:09:00,
2013-12-17 06:15:00,24.3,21.0,29.91,West,270,3.1,4.5,87,0.00,,,0.00,pywws,2013-12-17 11:15:00,
2013-12-17 06:20:00,23.9,20.6,29.92,NW,315,3.8,13.0,87,0.00,,,0.00,pywws,2013-12-17 11:20:00,
2013-12-17 06:25:00,23.7,20.4,29.93,NW,315,5.4,9.8,87,0.00,,,0.00,pywws,2013-12-17 11:25:00,
2013-12-17 06:30:00,23.5,20.5,29.93,NW,315,3.1,5.4,88,0.00,,,0.00,pywws,2013-12-17 11:30:00,
2013-12-17 06:36:00,23.4,20.3,29.94,North,0,4.5,6.0,88,0.00,,,0.00,pywws,2013-12-17 11:36:00,
2013-12-17 06:41:00,23.2,20.2,29.94,West,270,6.0,8.3,88,0.00,,,0.00,pywws,2013-12-17 11:41:00,
2013-12-17 06:47:00,23.2,19.9,29.94,North,0,1.6,3.1,87,0.00,,,0.00,pywws,2013-12-17 11:47:00,
2013-12-17 06:53:00,23.0,19.7,29.94,East,90,0.7,2.2,87,0.00,,,0.00,pywws,2013-12-17 11:53:00,
2013-12-17 06:58:00,22.6,19.6,29.94,West,270,1.6,3.1,88,0.00,,,0.00,pywws,2013-12-17 11:58:00,
2013-12-17 07:04:00,22.6,19.6,29.93,West,270,1.6,3.8,88,0.00,,,0.00,pywws,2013-12-17 12:04:00,
2013-12-17 07:09:00,22.5,19.5,29.93,North,0,3.1,6.0,88,0.00,,,0.00,pywws,2013-12-17 12:09:00,
2013-12-17 07:15:00,22.3,19.0,29.94,SW,225,0.0,1.6,87,0.00,,,0.00,pywws,2013-12-17 12:15:00,
2013-12-17 07:20:00,22.5,19.2,29.93,West,270,0.7,1.6,87,0.00,,,0.00,pywws,2013-12-17 12:20:00,
2013-12-17 07:25:00,22.3,19.0,29.94,West,270,3.8,7.6,87,0.00,,,0.00,pywws,2013-12-17 12:25:00,
2013-12-17 07:30:00,22.1,18.8,29.95,West,270,3.1,6.0,87,0.00,,,0.00,pywws,2013-12-17 12:30:00,
2013-12-17 07:36:00,22.3,19.0,29.94,South,180,1.6,3.8,87,0.00,,,0.00,pywws,2013-12-17 12:36:00,
2013-12-17 07:41:00,22.1,18.8,29.95,West,270,0.7,3.8,87,0.00,,,0.00,pywws,2013-12-17 12:41:00,
2013-12-17 07:47:00,22.1,18.8,29.96,South,180,0.0,0.7,87,0.00,,,0.00,pywws,2013-12-17 12:47:00,
2013-12-17 07:53:00,22.3,19.0,29.96,SW,225,0.7,2.2,87,0.00,,,0.00,pywws,2013-12-17 12:53:00,
2013-12-17 07:58:00,22.1,18.8,29.96,SE,135,3.1,4.5,87,0.00,,,0.00,pywws,2013-12-17 12:58:00,
2013-12-17 08:04:00,21.9,18.4,29.96,West,270,3.1,6.0,86,0.00,,,0.00,pywws,2013-12-17 13:04:00,
2013-12-17 08:09:00,21.7,18.2,29.97,West,270,2.2,4.5,86,0.00,,,0.00,pywws,2013-12-17 13:09:00,
2013-12-17 08:14:00,21.6,18.0,29.97,South,180,0.7,2.2,86,0.00,,,0.00,pywws,2013-12-17 13:14:00,
2013-12-17 08:20:00,21.6,18.0,29.98,South,180,1.6,3.8,86,0.00,,,0.00,pywws,2013-12-17 13:20:00,
2013-12-17 08:25:00,21.6,17.8,29.98,West,270,3.1,5.4,85,0.00,,,0.00,pywws,2013-12-17 13:25:00,
2013-12-17 08:30:00,21.6,17.8,29.98,SE,135,0.7,1.6,85,0.00,,,0.00,pywws,2013-12-17 13:30:00,
2013-12-17 08:36:00,21.4,17.6,29.99,West,270,2.2,3.8,85,0.00,,,0.00,pywws,2013-12-17 13:36:00,
2013-12-17 08:41:00,21.6,17.8,29.99,SW,225,1.6,3.1,85,0.00,,,0.00,pywws,2013-12-17 13:41:00,
2013-12-17 08:47:00,21.6,17.8,29.99,West,270,5.4,9.8,85,0.00,,,0.00,pywws,2013-12-17 13:47:00,
2013-12-17 08:53:00,21.6,17.5,29.99,West,270,0.0,0.7,84,0.00,,,0.00,pywws,2013-12-17 13:53:00,
2013-12-17 08:58:00,21.6,17.5,29.99,West,270,0.0,0.7,84,0.00,,,0.00,pywws,2013-12-17 13:58:00,
2013-12-17 09:04:00,21.7,17.7,29.99,SW,225,0.7,1.6,84,0.00,,,0.00,pywws,2013-12-17 14:04:00,
2013-12-17 09:09:00,21.6,17.5,30.00,West,270,2.2,3.1,84,0.00,,,0.00,pywws,2013-12-17 14:09:00,
2013-12-17 09:14:00,21.4,17.3,29.99,West,270,0.0,1.6,84,0.00,,,0.00,pywws,2013-12-17 14:14:00,
2013-12-17 09:20:00,21.6,17.5,30.00,SW,225,4.5,6.0,84,0.00,,,0.00,pywws,2013-12-17 14:20:00,
2013-12-17 09:25:00,21.9,17.8,30.00,NW,315,1.6,3.1,84,0.00,,,0.00,pywws,2013-12-17 14:25:00,
2013-12-17 09:30:00,21.4,17.3,30.01,West,270,3.8,7.6,84,0.00,,,0.00,pywws,2013-12-17 14:30:00,
2013-12-17 09:35:00,21.2,17.1,30.01,West,270,2.2,5.4,84,0.00,,,0.00,pywws,2013-12-17 14:35:00,
2013-12-17 09:40:00,21.4,17.0,30.01,West,270,1.6,4.5,83,0.00,,,0.00,pywws,2013-12-17 14:40:00,
2013-12-17 09:45:00,21.2,16.9,30.01,West,270,2.2,3.8,83,0.00,,,0.00,pywws,2013-12-17 14:45:00,
2013-12-17 09:50:00,21.9,17.6,30.01,North,0,0.7,1.6,83,0.00,,,0.00,pywws,2013-12-17 14:50:00,
2013-12-17 09:56:00,21.9,17.6,30.00,East,90,0.0,0.7,83,0.00,,,0.00,pywws,2013-12-17 14:56:00,
2013-12-17 10:01:00,22.1,17.7,30.00,West,270,2.2,4.5,83,0.00,,,0.00,pywws,2013-12-17 15:01:00,
2013-12-17 10:07:00,22.5,17.8,30.00,West,270,0.7,2.2,82,0.00,,,0.00,pywws,2013-12-17 15:07:00,
2013-12-17 10:13:00,22.6,18.0,30.00,SE,135,3.1,5.4,82,0.00,,,0.00,pywws,2013-12-17 15:13:00,
2013-12-17 10:18:00,22.8,18.2,30.00,NW,315,0.7,2.2,82,0.00,,,0.00,pywws,2013-12-17 15:18:00,
2013-12-17 10:24:00,23.2,17.9,30.00,West,270,1.6,2.2,80,0.00,,,0.00,pywws,2013-12-17 15:24:00,
2013-12-17 10:29:00,23.4,17.8,30.00,SE,135,2.2,4.5,79,0.00,,,0.00,pywws,2013-12-17 15:29:00,
2013-12-17 10:35:00,24.1,18.5,29.99,South,180,0.7,3.1,79,0.00,,,0.00,pywws,2013-12-17 15:35:00,
2013-12-17 10:40:00,23.7,17.9,29.99,South,180,0.7,2.2,78,0.00,,,0.00,pywws,2013-12-17 15:40:00,
2013-12-17 10:45:00,23.7,17.9,29.99,West,270,1.6,3.1,78,0.00,,,0.00,pywws,2013-12-17 15:45:00,
2013-12-17 10:50:00,23.7,17.3,29.99,SE,135,0.0,0.0,76,0.00,,,0.00,pywws,2013-12-17 15:50:00,
2013-12-17 10:56:00,24.3,17.8,29.99,West,270,2.2,3.1,76,0.00,,,0.00,pywws,2013-12-17 15:56:00,
2013-12-17 11:01:00,24.8,17.7,29.99,West,270,3.1,6.9,74,0.00,,,0.00,pywws,2013-12-17 16:01:00,
2013-12-17 11:07:00,25.3,17.9,29.99,North,0,3.1,4.5,73,0.00,,,0.00,pywws,2013-12-17 16:07:00,
2013-12-17 11:13:00,25.0,17.3,29.98,SE,135,4.5,6.9,72,0.00,,,0.00,pywws,2013-12-17 16:13:00,
2013-12-17 11:18:00,25.3,17.9,29.98,SW,225,2.2,3.8,73,0.00,,,0.00,pywws,2013-12-17 16:18:00,
2013-12-17 11:24:00,25.0,17.3,29.98,South,180,3.8,6.0,72,0.00,,,0.00,pywws,2013-12-17 16:24:00,
2013-12-17 11:29:00,26.6,18.5,29.97,South,180,2.2,3.8,71,0.00,,,0.00,pywws,2013-12-17 16:29:00,
2013-12-17 11:35:00,27.9,18.7,29.97,South,180,3.8,8.3,68,0.00,,,0.00,pywws,2013-12-17 16:35:00,
2013-12-17 11:40:00,28.2,18.7,29.97,South,180,2.2,3.8,67,0.00,,,0.00,pywws,2013-12-17 16:40:00,
2013-12-17 11:45:00,28.0,17.5,29.97,SW,225,0.7,1.6,64,0.00,,,0.00,pywws,2013-12-17 16:45:00,
2013-12-17 11:50:00,29.7,20.1,29.97,West,270,2.2,3.8,67,0.00,,,0.00,pywws,2013-12-17 16:50:00,
2013-12-17 11:56:00,26.2,15.4,29.97,SW,225,2.2,4.5,63,0.00,,,0.00,pywws,2013-12-17 16:56:00,
2013-12-17 12:01:00,28.2,17.6,29.97,South,180,2.2,3.8,64,0.00,,,0.00,pywws,2013-12-17 17:01:00,
2013-12-17 12:07:00,27.3,16.4,29.97,SW,225,1.6,3.8,63,0.00,,,0.00,pywws,2013-12-17 17:07:00,
2013-12-17 12:13:00,26.6,15.7,29.96,West,270,3.1,5.4,63,0.00,,,0.00,pywws,2013-12-17 17:13:00,
2013-12-17 12:18:00,26.2,15.7,29.96,South,180,1.6,3.1,64,0.00,,,0.00,pywws,2013-12-17 17:18:00,
2013-12-17 12:24:00,25.7,15.9,29.96,SW,225,3.8,7.6,66,0.00,,,0.00,pywws,2013-12-17 17:24:00,
2013-12-17 12:29:00,27.3,17.1,29.95,SW,225,1.6,5.4,65,0.00,,,0.00,pywws,2013-12-17 17:29:00,
2013-12-17 12:35:00,27.9,16.9,29.95,West,270,1.6,3.1,63,0.00,,,0.00,pywws,2013-12-17 17:35:00,
2013-12-17 12:40:00,26.8,15.5,29.95,SW,225,3.8,5.4,62,0.00,,,0.00,pywws,2013-12-17 17:40:00,
2013-12-17 12:45:00,27.3,16.4,29.95,South,180,3.1,6.0,63,0.00,,,0.00,pywws,2013-12-17 17:45:00,
2013-12-17 12:50:00,27.3,16.4,29.94,SW,225,3.1,3.8,63,0.00,,,0.00,pywws,2013-12-17 17:50:00,
2013-12-17 12:55:00,26.4,15.6,29.95,South,180,3.8,4.5,63,0.00,,,0.00,pywws,2013-12-17 17:55:00,
2013-12-17 13:00:00,25.7,15.2,29.95,South,180,3.1,6.0,64,0.00,,,0.00,pywws,2013-12-17 18:00:00,
2013-12-17 13:05:00,25.9,15.8,29.94,SE,135,2.2,3.8,65,0.00,,,0.00,pywws,2013-12-17 18:05:00,
2013-12-17 13:10:00,25.7,16.3,29.93,SE,135,5.4,9.8,67,0.00,,,0.00,pywws,2013-12-17 18:10:00,
2013-12-17 13:15:00,25.9,16.5,29.93,South,180,3.8,5.4,67,0.00,,,0.00,pywws,2013-12-17 18:15:00,
2013-12-17 13:20:00,26.6,16.8,29.93,South,180,1.6,2.2,66,0.00,,,0.00,pywws,2013-12-17 18:20:00,
2013-12-17 13:25:00,26.8,16.6,29.92,SW,225,2.2,4.5,65,0.00,,,0.00,pywws,2013-12-17 18:25:00,
2013-12-17 13:30:00,26.8,16.6,29.93,SE,135,4.5,6.9,65,0.00,,,0.00,pywws,2013-12-17 18:30:00,
2013-12-17 13:35:00,26.8,16.6,29.93,SE,135,3.1,5.4,65,0.00,,,0.00,pywws,2013-12-17 18:35:00,
2013-12-17 13:40:00,27.1,17.0,29.92,SW,225,2.2,3.1,65,0.00,,,0.00,pywws,2013-12-17 18:40:00,
2013-12-17 13:45:00,27.1,16.6,29.93,SW,225,6.0,10.7,64,0.00,,,0.00,pywws,2013-12-17 18:45:00,
2013-12-17 13:50:00,27.0,16.8,29.92,South,180,6.9,9.8,65,0.00,,,0.00,pywws,2013-12-17 18:50:00,
2013-12-17 13:55:00,26.8,16.6,29.92,South,180,2.2,4.5,65,0.00,,,0.00,pywws,2013-12-17 18:55:00,
2013-12-17 14:00:00,27.7,17.5,29.91,South,180,1.6,3.1,65,0.00,,,0.00,pywws,2013-12-17 19:00:00,
2013-12-17 14:05:00,27.5,16.9,29.91,South,180,1.6,3.1,64,0.00,,,0.00,pywws,2013-12-17 19:05:00,
2013-12-17 14:10:00,27.5,16.9,29.91,South,180,3.8,6.9,64,0.00,,,0.00,pywws,2013-12-17 19:10:00,
2013-12-17 14:15:00,27.0,16.1,29.91,South,180,6.9,9.8,63,0.00,,,0.00,pywws,2013-12-17 19:15:00,
2013-12-17 14:20:00,27.3,16.4,29.91,SE,135,2.2,5.4,63,0.00,,,0.00,pywws,2013-12-17 19:20:00,
2013-12-17 14:25:00,27.9,17.3,29.91,South,180,0.7,3.1,64,0.00,,,0.00,pywws,2013-12-17 19:25:00,
2013-12-17 14:30:00,27.1,16.6,29.91,SE,135,3.1,4.5,64,0.00,,,0.00,pywws,2013-12-17 19:30:00,
2013-12-17 14:35:00,26.4,16.3,29.91,SE,135,4.5,6.0,65,0.00,,,0.00,pywws,2013-12-17 19:35:00,
2013-12-17 14:40:00,26.8,16.6,29.91,South,180,5.4,9.8,65,0.00,,,0.00,pywws,2013-12-17 19:40:00,
2013-12-17 14:45:00,26.1,16.3,29.91,South,180,5.4,6.9,66,0.00,,,0.00,pywws,2013-12-17 19:45:00,
2013-12-17 14:50:00,26.4,17.0,29.90,South,180,0.0,3.8,67,0.00,,,0.00,pywws,2013-12-17 19:50:00,
2013-12-17 14:55:00,26.4,17.0,29.90,South,180,2.2,3.1,67,0.00,,,0.00,pywws,2013-12-17 19:55:00,
2013-12-17 15:00:00,26.2,16.8,29.90,South,180,4.5,6.0,67,0.00,,,0.00,pywws,2013-12-17 20:00:00,
2013-12-17 15:05:00,26.4,17.3,29.90,West,270,2.2,3.8,68,0.00,,,0.00,pywws,2013-12-17 20:05:00,
2013-12-17 15:10:00,26.2,17.1,29.90,SE,135,2.2,4.5,68,0.00,,,0.00,pywws,2013-12-17 20:10:00,
2013-12-17 15:15:00,26.6,17.1,29.90,SW,225,3.1,5.4,67,0.00,,,0.00,pywws,2013-12-17 20:15:00,
2013-12-17 15:20:00,26.6,17.1,29.89,SE,135,3.8,6.9,67,0.00,,,0.00,pywws,2013-12-17 20:20:00,
2013-12-17 15:25:00,25.9,16.8,29.90,South,180,8.3,10.7,68,0.00,,,0.00,pywws,2013-12-17 20:25:00,
2013-12-17 15:30:00,26.2,17.1,29.90,SE,135,4.5,6.0,68,0.00,,,0.00,pywws,2013-12-17 20:30:00,
2013-12-17 15:35:00,26.1,17.0,29.90,SE,135,10.7,14.5,68,0.00,,,0.00,pywws,2013-12-17 20:35:00,
2013-12-17 15:40:00,26.1,17.0,29.89,SE,135,6.0,7.6,68,0.00,,,0.00,pywws,2013-12-17 20:40:00,
2013-12-17 15:45:00,26.1,17.3,29.89,South,180,3.1,4.5,69,0.00,,,0.00,pywws,2013-12-17 20:45:00,
2013-12-17 15:50:00,25.7,17.0,29.88,South,180,5.4,6.9,69,0.00,,,0.00,pywws,2013-12-17 20:50:00,
2013-12-17 15:55:00,25.5,16.8,29.89,South,180,6.0,11.4,69,0.00,,,0.00,pywws,2013-12-17 20:55:00,
2013-12-17 16:00:00,25.7,17.0,29.89,South,180,3.8,5.4,69,0.00,,,0.00,pywws,2013-12-17 21:00:00,
2013-12-17 16:05:00,25.7,17.3,29.90,North,0,5.4,9.2,70,0.00,,,0.00,pywws,2013-12-17 21:05:00,
2013-12-17 16:10:00,25.3,16.6,29.90,SE,135,6.0,11.4,69,0.00,,,0.00,pywws,2013-12-17 21:10:00,
2013-12-17 16:15:00,25.3,16.6,29.90,South,180,4.5,7.6,69,0.00,,,0.00,pywws,2013-12-17 21:15:00,
2013-12-17 16:20:00,25.3,16.6,29.91,South,180,7.6,12.1,69,0.00,,,0.00,pywws,2013-12-17 21:20:00,
2013-12-17 16:25:00,25.5,17.1,29.90,SE,135,8.3,13.6,70,0.00,,,0.00,pywws,2013-12-17 21:25:00,
2013-12-17 16:30:00,25.5,17.1,29.91,SE,135,1.6,5.4,70,0.00,,,0.00,pywws,2013-12-17 21:30:00,
2013-12-17 16:35:00,25.3,16.9,29.91,SE,135,8.3,11.4,70,0.00,,,0.00,pywws,2013-12-17 21:35:00,
2013-12-17 16:40:00,25.5,17.1,29.90,SE,135,3.8,6.0,70,0.00,,,0.00,pywws,2013-12-17 21:40:00,
2013-12-17 16:45:00,25.5,17.1,29.91,South,180,7.6,12.1,70,0.00,,,0.00,pywws,2013-12-17 21:45:00,
2013-12-17 16:50:00,25.5,17.1,29.91,South,180,2.2,5.4,70,0.00,,,0.00,pywws,2013-12-17 21:50:00,
2013-12-17 16:55:00,25.5,17.1,29.92,South,180,3.1,3.8,70,0.00,,,0.00,pywws,2013-12-17 21:55:00,
2013-12-17 17:00:00,25.5,17.1,29.92,South,180,3.1,4.5,70,0.00,,,0.00,pywws,2013-12-17 22:00:00,
2013-12-17 17:05:00,25.5,16.8,29.92,South,180,6.9,7.6,69,0.00,,,0.00,pywws,2013-12-17 22:05:00,
2013-12-17 17:10:00,25.5,16.8,29.92,South,180,3.1,4.5,69,0.00,,,0.00,pywws,2013-12-17 22:10:00,
2013-12-17 17:15:00,25.5,16.8,29.92,South,180,2.2,3.8,69,0.00,,,0.00,pywws,2013-12-17 22:15:00,
2013-12-17 17:17:00,25.7,17.0,29.92,South,180,3.8,6.0,69,0.00,,,0.00,pywws,2013-12-17 22:17:00,
2013-12-17 17:22:00,25.5,16.8,29.92,West,270,1.6,3.1,69,0.00,,,0.00,pywws,2013-12-17 22:22:00,
2013-12-17 17:28:00,25.5,17.1,29.92,SW,225,3.1,5.4,70,0.00,,,0.00,pywws,2013-12-17 22:28:00,
2013-12-17 17:34:00,25.7,17.3,29.92,West,270,2.2,3.1,70,0.00,,,0.00,pywws,2013-12-17 22:34:00,
2013-12-17 17:39:00,25.7,17.0,29.92,West,270,0.7,1.6,69,0.00,,,0.00,pywws,2013-12-17 22:39:00,
2013-12-17 17:45:00,25.7,17.0,29.92,SE,135,5.4,7.6,69,0.00,,,0.00,pywws,2013-12-17 22:45:00,
2013-12-17 17:50:00,25.9,17.1,29.92,SE,135,1.6,3.1,69,0.00,,,0.00,pywws,2013-12-17 22:50:00,
2013-12-17 17:55:00,25.9,17.5,29.92,SE,135,1.6,6.9,70,0.00,,,0.00,pywws,2013-12-17 22:55:00,
2013-12-17 18:00:00,25.9,17.1,29.92,West,270,1.6,3.1,69,0.00,,,0.00,pywws,2013-12-17 23:00:00,
2013-12-17 18:05:00,25.9,17.5,29.92,SE,135,1.6,3.8,70,0.00,,,0.00,pywws,2013-12-17 23:05:00,
2013-12-17 18:10:00,25.7,17.6,29.92,West,270,2.2,3.1,71,0.00,,,0.00,pywws,2013-12-17 23:10:00,
2013-12-17 18:15:00,25.9,18.1,29.93,South,180,1.6,2.2,72,0.00,,,0.00,pywws,2013-12-17 23:15:00,
2013-12-17 18:20:00,25.9,18.1,29.93,West,270,1.6,4.5,72,0.00,,,0.00,pywws,2013-12-17 23:20:00,
2013-12-17 18:25:00,26.1,18.3,29.93,South,180,3.1,6.0,72,0.00,,,0.00,pywws,2013-12-17 23:25:00,
2013-12-17 18:30:00,26.1,18.3,29.94,South,180,1.6,2.2,72,0.00,,,0.00,pywws,2013-12-17 23:30:00,
2013-12-17 18:35:00,26.2,18.5,29.94,West,270,2.2,4.5,72,0.00,,,0.00,pywws,2013-12-17 23:35:00,
2013-12-17 18:40:00,26.2,18.5,29.94,South,180,2.2,3.1,72,0.00,,,0.00,pywws,2013-12-17 23:40:00,
2013-12-17 18:45:00,26.2,18.5,29.94,West,270,1.6,3.1,72,0.00,,,0.00,pywws,2013-12-17 23:45:00,
2013-12-17 18:50:00,26.1,18.3,29.95,SW,225,3.1,5.4,72,0.00,,,0.00,pywws,2013-12-17 23:50:00,
2013-12-17 18:55:00,25.9,18.4,29.95,SW,225,2.2,3.1,73,0.00,,,0.00,pywws,2013-12-17 23:55:00,
2013-12-17 19:00:00,25.9,18.8,29.95,West,270,3.1,7.6,74,0.00,,,0.00,pywws,2013-12-18 00:00:00,
2013-12-17 19:05:00,25.9,18.8,29.94,West,270,3.1,7.6,74,0.00,,,0.00,pywws,2013-12-18 00:05:00,
2013-12-17 19:06:00,25.9,18.8,29.94,South,180,1.6,3.1,74,0.00,,,0.00,pywws,2013-12-18 00:06:00,
2013-12-17 19:11:00,25.9,19.1,29.95,West,270,2.2,4.5,75,0.00,,,0.00,pywws,2013-12-18 00:11:00,
2013-12-17 19:17:00,25.7,19.2,29.95,SW,225,1.6,3.8,76,0.00,,,0.00,pywws,2013-12-18 00:17:00,
2013-12-17 19:20:00,25.7,19.2,29.95,SE,135,3.1,5.4,76,0.00,,,0.00,pywws,2013-12-18 00:20:00,
2013-12-17 19:25:00,25.7,19.5,29.95,West,270,1.6,3.8,77,0.00,,,0.00,pywws,2013-12-18 00:25:00,
2013-12-17 19:30:00,25.5,19.6,29.95,NW,315,3.1,4.5,78,0.00,,,0.00,pywws,2013-12-18 00:30:00,
2013-12-17 19:32:00,25.5,19.6,29.95,South,180,3.1,6.0,78,0.00,,,0.00,pywws,2013-12-18 00:32:00,
2013-12-17 19:35:00,25.5,19.9,29.95,SW,225,3.8,7.6,79,0.00,,,0.00,pywws,2013-12-18 00:35:00,
2013-12-17 19:40:00,25.5,19.9,29.95,West,270,2.2,6.0,79,0.00,,,0.00,pywws,2013-12-18 00:40:00,
2013-12-17 19:45:00,25.7,20.1,29.95,South,180,4.5,6.9,79,0.00,,,0.00,pywws,2013-12-18 00:45:00,
2013-12-17 19:50:00,25.7,20.1,29.95,North,0,1.6,2.2,79,0.00,,,0.00,pywws,2013-12-18 00:50:00,
2013-12-17 19:53:00,25.7,20.1,29.94,South,180,3.1,4.5,79,0.00,,,0.00,pywws,2013-12-18 00:53:00,
2013-12-17 19:55:00,25.7,20.1,29.95,SW,225,1.6,3.1,79,0.00,,,0.00,pywws,2013-12-18 00:55:00,
2013-12-17 20:00:00,25.7,20.1,29.95,West,270,1.6,2.2,79,0.00,,,0.00,pywws,2013-12-18 01:00:00,
2013-12-17 20:05:00,25.7,20.1,29.95,West,270,1.6,2.2,79,0.00,,,0.00,pywws,2013-12-18 01:05:00,
2013-12-17 20:11:00,25.7,20.1,29.95,West,270,1.6,2.2,79,0.00,,,0.00,pywws,2013-12-18 01:11:00,
2013-12-17 20:17:00,25.9,20.3,29.95,West,270,2.2,3.8,79,0.00,,,0.00,pywws,2013-12-18 01:17:00,
2013-12-17 20:22:00,25.7,20.1,29.95,South,180,4.5,6.9,79,0.00,,,0.00,pywws,2013-12-18 01:22:00,
2013-12-17 20:28:00,25.9,20.3,29.96,South,180,0.7,1.6,79,0.00,,,0.00,pywws,2013-12-18 01:28:00,
2013-12-17 20:34:00,25.7,20.1,29.96,West,270,2.2,3.8,79,0.00,,,0.00,pywws,2013-12-18 01:34:00,
2013-12-17 20:39:00,25.9,20.3,29.96,West,270,0.7,1.6,79,0.00,,,0.00,pywws,2013-12-18 01:39:00,
2013-12-17 20:45:00,25.9,20.3,29.96,SW,225,3.8,4.5,79,0.00,,,0.00,pywws,2013-12-18 01:45:00,
2013-12-17 20:50:00,25.9,20.0,29.96,West,270,3.8,6.0,78,0.00,,,0.00,pywws,2013-12-18 01:50:00,
2013-12-17 20:55:00,25.7,19.8,29.96,West,270,3.1,6.0,78,0.00,,,0.00,pywws,2013-12-18 01:55:00,
2013-12-17 21:00:00,25.7,19.8,29.97,South,180,3.1,5.4,78,0.00,,,0.00,pywws,2013-12-18 02:00:00,
2013-12-17 21:05:00,25.7,19.8,29.97,South,180,3.1,5.4,78,0.00,,,0.00,pywws,2013-12-18 02:05:00,
2013-12-17 21:10:00,25.9,19.7,29.97,SW,225,0.7,2.2,77,0.00,,,0.00,pywws,2013-12-18 02:10:00,
2013-12-17 21:15:00,25.9,19.7,29.97,West,270,0.7,2.2,77,0.00,,,0.00,pywws,2013-12-18 02:15:00,
2013-12-17 21:21:00,25.9,19.7,29.98,South,180,0.7,2.2,77,0.00,,,0.00,pywws,2013-12-18 02:21:00,
2013-12-17 21:26:00,25.7,19.8,29.98,South,180,3.8,5.4,78,0.00,,,0.00,pywws,2013-12-18 02:26:00,
2013-12-17 21:32:00,25.7,19.8,29.98,East,90,0.7,2.2,78,0.00,,,0.00,pywws,2013-12-18 02:32:00,
2013-12-17 21:38:00,25.5,19.9,29.98,South,180,3.8,6.9,79,0.00,,,0.00,pywws,2013-12-18 02:38:00,
2013-12-17 21:43:00,25.7,20.4,29.98,West,270,1.6,3.8,80,0.00,,,0.00,pywws,2013-12-18 02:43:00,
2013-12-17 21:49:00,25.5,20.5,29.98,North,0,1.6,6.9,81,0.00,,,0.00,pywws,2013-12-18 02:49:00,
2013-12-17 21:54:00,25.5,20.5,29.98,NW,315,1.6,4.5,81,0.00,,,0.00,pywws,2013-12-18 02:54:00,
2013-12-17 22:00:00,25.5,20.5,29.98,West,270,3.8,5.4,81,0.00,,,0.00,pywws,2013-12-18 03:00:00,
2013-12-17 22:05:00,25.5,20.5,29.98,West,270,0.7,2.2,81,0.00,,,0.00,pywws,2013-12-18 03:05:00,
2013-12-17 22:10:00,25.5,20.5,29.99,West,270,2.2,4.5,81,0.00,,,0.00,pywws,2013-12-18 03:10:00,
2013-12-17 22:15:00,25.5,20.5,29.99,NW,315,3.1,5.4,81,0.00,,,0.00,pywws,2013-12-18 03:15:00,
2013-12-17 22:20:00,25.5,20.5,29.99,West,270,0.7,3.8,81,0.00,,,0.00,pywws,2013-12-18 03:20:00,
2013-12-17 22:25:00,25.7,20.4,29.99,South,180,1.6,3.8,80,0.00,,,0.00,pywws,2013-12-18 03:25:00,
2013-12-17 22:30:00,25.7,20.4,29.99,West,270,1.6,3.1,80,0.00,,,0.00,pywws,2013-12-18 03:30:00,
2013-12-17 22:35:00,25.7,20.1,29.99,SW,225,3.1,4.5,79,0.00,,,0.00,pywws,2013-12-18 03:35:00,
2013-12-17 22:40:00,25.7,20.1,29.99,West,270,1.6,3.1,79,0.00,,,0.00,pywws,2013-12-18 03:40:00,
2013-12-17 22:45:00,25.7,20.1,29.99,NW,315,0.7,2.2,79,0.00,,,0.00,pywws,2013-12-18 03:45:00,
2013-12-17 22:50:00,25.9,20.3,29.99,South,180,1.6,3.8,79,0.00,,,0.00,pywws,2013-12-18 03:50:00,
2013-12-17 22:55:00,25.9,20.3,29.99,South,180,1.6,3.8,79,0.00,,,0.00,pywws,2013-12-18 03:55:00,
2013-12-17 23:00:00,25.7,20.1,29.99,South,180,4.5,8.3,79,0.00,,,0.00,pywws,2013-12-18 04:00:00,
2013-12-17 23:05:00,25.7,20.1,30.00,South,180,4.5,8.3,79,0.00,,,0.00,pywws,2013-12-18 04:05:00,
2013-12-17 23:10:00,25.9,20.0,30.00,North,0,2.2,5.4,78,0.00,,,0.00,pywws,2013-12-18 04:10:00,
2013-12-17 23:15:00,25.9,20.0,30.00,SW,225,1.6,2.2,78,0.00,,,0.00,pywws,2013-12-18 04:15:00,
2013-12-17 23:20:00,25.7,19.8,30.00,SW,225,0.0,3.8,78,0.00,,,0.00,pywws,2013-12-18 04:20:00,
2013-12-17 23:25:00,25.7,19.5,30.00,West,270,0.7,3.1,77,0.00,,,0.00,pywws,2013-12-18 04:25:00,
2013-12-17 23:30:00,25.7,19.8,30.00,North,0,0.7,1.6,78,0.00,,,0.00,pywws,2013-12-18 04:30:00,
2013-12-17 23:35:00,25.7,19.5,30.00,South,180,1.6,3.8,77,0.00,,,0.00,pywws,2013-12-18 04:35:00,
2013-12-17 23:40:00,25.7,19.8,30.00,West,270,4.5,7.6,78,0.00,,,0.00,pywws,2013-12-18 04:40:00,
2013-12-17 23:45:00,25.7,19.5,30.00,SW,225,0.0,1.6,77,0.00,,,0.00,pywws,2013-12-18 04:45:00,
2013-12-17 23:50:00,25.7,19.8,30.00,SW,225,1.6,3.8,78,0.00,,,0.00,pywws,2013-12-18 04:50:00,
2013-12-17 23:55:00,25.7,19.8,30.00,West,270,1.6,6.9,78,0.00,,,0.00,pywws,2013-12-18 04:55:00,